Regional Weather Roundup
Issued by NWS

Home | Current Version | Previous Version | Graphics & Text | Print | Product List | Glossary On
Versions: 1 2 3 4 5 6 7 8 9 10 11 12 13 14 15 16 17 18 19 20 21 22 23 24 25 26 27 28 29 30 31 32 33 34 35 36 37 38 39 40 41 42 43 44 45 46 47 48 49 50
836
ASUS43 KFSD 212202
RWRSD

WEATHER ROUNDUP FOR SOUTH DAKOTA
NATIONAL WEATHER SERVICE SIOUX FALLS SD
400 PM CST TUE FEB 21 2017

NOTE: "FAIR" INDICATES FEW OR NO CLOUDS BELOW 12,000 FEET WITH NO
SIGNIFICANT WEATHER AND/OR OBSTRUCTIONS TO VISIBILITY.


SDZ001>005-009-010-012>017-212300-
NORTHWEST AND NORTH CENTRAL SOUTH DAKOTA

CITY           SKY/WX    TMP DP  RH WIND       PRES   REMARKS
BUFFALO          N/A     67  31  26 SW21G29   29.57F
FAITH            N/A     68  36  30 W13       29.63F
MOBRIDGE       SUNNY     60  35  39 SE9       29.63F
$$

SDZ012>016-024>037-041>051-057-063-072>074-212300-
SOUTHWEST AND SOUTH CENTRAL SOUTH DAKOTA

CITY           SKY/WX    TMP DP  RH WIND       PRES   REMARKS
RAPID CTY ARPT SUNNY     71  25  17 W28G41    29.66F
PIERRE         SUNNY     69  34  27 VRB7      29.64F
CUSTER         CLOUDY    58  23  26 W17G37    29.78F
ELLSWORTH AFB  SUNNY     71  29  21 W29G39    29.66F
PHILIP         SUNNY     75  30  19 W23G29    29.64F
PINE RIDGE     SUNNY     72  27  18 W24G45    29.74F
SPEARFISH      FAIR      64  28  25 W22G39    29.68F
WINNER         FAIR      77  33  20 W16G28    29.69F
$$

SDZ004>011-016>023-039-040-212300-
NORTHEAST SOUTH DAKOTA

CITY           SKY/WX    TMP DP  RH WIND       PRES   REMARKS
ABERDEEN       SUNNY     63  36  36 CALM      29.67F
WATERTOWN      SUNNY     58  41  53 SW10      29.69F
BROOKINGS      SUNNY     63  40  42 SW13      29.70F
SISSETON         N/A     58  42  55 W8        29.66F
$$

SDZ017-020-022-023-036>040-048>070-212300-
SOUTHEAST SOUTH DAKOTA

CITY           SKY/WX    TMP DP  RH WIND       PRES   REMARKS
SIOUX FALLS    MOSUNNY   68  40  35 W5        29.71F
HURON          SUNNY     68  36  30 VRB6      29.68S
CHAMBERLAIN    SUNNY     72  38  28 CALM      29.68F
MITCHELL       SUNNY     70  36  28 W10       29.70S
YANKTON        SUNNY     75  36  23 W16       29.69F
$$

ABBREVIATIONS USED IN REMARKS
   TC - TEMPERATURE IN CELSIUS
  WCI - WIND CHILL INDEX
   HX - HEAT INDEX
  VSB - VISIBILITY





USA.gov is the U.S. government's official web portal to all federal, state and local government web resources and services.